Regional Weather Roundup
Issued by NWS

Home | Current Version | Previous Version | Text Only | Print | Product List | Glossary Off
Versions: 1 2 3 4 5 6 7 8 9 10 11 12 13 14 15 16 17 18 19 20 21 22 23 24 25 26 27 28 29 30 31 32 33 34 35 36 37 38 39 40 41 42 43 44 45 46 47 48 49 50

000
ASUS44 KMEG 230900
RWRTN
TENNESSEE HOURLY STATE WEATHER ROUNDUP
NATIONAL WEATHER SERVICE MEMPHIS TN
300 AM CST SUN NOV 23 2014

TNZ002-004-019-021-049-052-054-088>092-231000-
WEST TENNESSEE

CITY           SKY/WX    TMP DP  RH WIND       PRES   REMARKS
MEMPHIS INTL   CLOUDY    60  52  74 SE10      29.84F
NWS MEMPHIS      N/A     59 N/A N/A MISG        N/A
JACKSON        CLOUDY    60  51  72 SE5       29.87F
DYERSBURG      CLOUDY    57  43  58 SE8       29.87F
UNION CITY     CLOUDY    54  46  76 SE6       29.88F
PARIS          CLOUDY    54  45  71 SE6       29.91F
LEXINGTON      CLOUDY    57  48  72 SE9       29.89F
SAVANNAH       CLOUDY    57  50  77 SE13      29.89F
$$

TNZ008-025-027-028-033-062-065-066-231000-
NORTH MIDDLE TENNESSEE

CITY           SKY/WX    TMP DP  RH WIND       PRES   REMARKS
NASHVILLE      CLOUDY    55  38  52 SE9       29.98F
CLARKSVILLE    MOCLDY    54  41  61 S7        29.95F
COOKEVILLE     CLOUDY    55  45  67 S10       30.02F
CROSSVILLE     CLOUDY    53  34  48 SE6       30.08F
$$

TNZ061-075-076-078-094-096-097-231000-
SOUTH MIDDLE TENNESSEE

CITY           SKY/WX    TMP DP  RH WIND       PRES   REMARKS
FAYETTEVILLE   PTCLDY    52  43  71 N21G38    29.96F
TULLAHOMA      PTCLDY    54  39  58 S7        29.99F
WINCHESTER     CLEAR     54  43  66 SE18      30.00F
SHELBYVILLE    MOCLDY    55  43  62 SE7       29.98F
$$

TNZ017-018-042-046-047-231000-
NORTHEAST TENNESSEE

CITY           SKY/WX    TMP DP  RH WIND       PRES   REMARKS
TRI CITIES     PTCLDY    34  27  75 NE3       30.18S
ELIZABETHTON   SUNNY     39  28  65 NE6       30.18S WCI  35
$$

TNZ012-013-036-069-073-074-231000-
CENTRAL EAST TENNESSEE

CITY           SKY/WX    TMP DP  RH WIND       PRES   REMARKS
KNOXVILLE      CLOUDY    41  32  70 VRB6      30.11F
OAK RIDGE      CLOUDY    43  36  76 CALM      30.13F
GATLINBURG     SUNNY     34  30  86 CALM      30.13F
$$

TNZ083-085-099-231000-
SOUTHEAST TENNESSEE

CITY           SKY/WX    TMP DP  RH WIND       PRES   REMARKS
CHATTANOOGA    LGT RAIN  53  45  74 S5        30.10F
$$

SKY/WX REPORTED AS FAIR MEANS FEW OR NO CLOUDS BELOW
12 THOUSAND FEET.



USA.gov is the U.S. government's official web portal to all federal, state and local government web resources and services.